This demonstration page uses our WeatherBlox Daily Observations layout. Learn more.

Left ArrowRight Arrow

41.86663, -103.66717

Hourly Observations for July 18, 2018

Temp ( °F °C ) Dew Point ( °F °C ) Humidity (%) Winds ( mph kmh ) Pressure ( in mb ) Visibility ( mi km ) Precip ( " mm )
12:04 am 00:04 Mostly Cloudy with Light Thunderstorms 70 21 66 19 88 88 NNE 13 20 29.94 1014 7 11.26538 N/A
12:20 am 00:20 Mostly Cloudy with Light Thunderstorms 67 19.4 66 18.9 97 97 NE 15 24 29.94 1014 9 14.48406 0.05 1.27
12:34 am 00:34 Mostly Cloudy with Nearby Thunderstorms 66 19 66 19 100 100 NE 10 17 29.97 1015 10 16.0934 N/A
12:42 am 00:42 Mostly Cloudy 64 18 64 18 100 100 ENE 10 17 29.97 1015 10 16.0934 N/A
12:53 am 00:53 Mostly Cloudy 66 18.9 66 18.9 100 100 ENE 12 19 29.99 1016 10 16.0934 0.05 1.27
1:24 am 01:24 Cloudy with Nearby Thunderstorms 64 18 64 18 100 100 ENE 10 17 29.97 1015 10 16.0934 N/A
1:38 am 01:38 Cloudy with Thunderstorms 64 18 64 18 100 100 NNE 9 15 29.97 1015 10 16.0934 N/A
1:53 am 01:53 Windy with Storms Likely 64 17.8 64 17.8 100 100 N 30 48 30 1016 6 9.65604 0.01 0.254
1:59 am 01:59 Cloudy with Heavy Thunderstorms 69 20.6 65 18.3 87 87 undefined N/A 29.91 1013 1.75 2.816345 0.18 4.572
2:04 am 02:04 Cloudy with Light Thunderstorms 66 19 64 18 94 94 SW 18 30 29.97 1015 2.5 4.02335 N/A
2:11 am 02:11 Cloudy with Light Thunderstorms 63 17 N/A N/A E 14 22 29.97 1015 10 16.0934 0.21 5.334
2:25 am 02:25 Cloudy with Nearby Thunderstorms 63 17 N/A N/A SE 13 20 29.97 1015 10 16.0934 0.21 5.334
2:39 am 02:39 Cloudy with Nearby Thunderstorms 63 17 N/A N/A ESE 9 15 29.97 1015 10 16.0934 0.21 5.334
2:53 am 02:53 Mostly Cloudy 63 17 N/A N/A ESE 12 19 29.98 1015 10 16.0934 0.21 5.334
3:53 am 03:53 Mostly Cloudy 59 15 N/A N/A ESE 8 13 29.98 1015 10 16.0934 N/A
4:03 am 04:03 Mostly Cloudy 61 16 N/A N/A ESE 8 13 30 1016 10 16.0934 N/A
4:29 am 04:29 Partly Cloudy 59 15 N/A N/A ESE 8 13 30 1016 10 16.0934 N/A
4:53 am 04:53 Clear 61 16 N/A N/A ESE 9 15 29.99 1016 10 16.0934 N/A
5:53 am 05:53 Sunny 59 15 N/A N/A S 3 6 29.99 1016 10 16.0934 N/A
6:53 am 06:53 Sunny 62 16.7 62 16.7 100 100 VRB 6 9 29.99 1016 10 16.0934 N/A
7:53 am 07:53 Mostly Sunny 65 18.3 63 17.2 93 93 ESE 3 6 29.98 1015 10 16.0934 N/A
8:53 am 08:53 Sunny 69 20.6 65 18.3 87 87 S 3 6 29.98 1015 10 16.0934 N/A
9:53 am 09:53 Sunny 73 22.8 66 18.9 79 79 N N/A 29.97 1015 10 16.0934 N/A
10:53 am 10:53 Sunny 76 24.4 67 19.4 74 74 VRB 3 6 29.94 1014 10 16.0934 N/A
11:53 am 11:53 Sunny 81 27.2 66 18.9 61 61 N N/A 29.93 1013 10 16.0934 N/A
12:53 pm 12:53 Sunny 83 28.3 64 17.8 53 53 NW 7 11 29.91 1013 10 16.0934 N/A
1:53 pm 13:53 Sunny 85 29.4 63 17.2 48 48 W 7 11 29.9 1012 10 16.0934 N/A
2:53 pm 14:53 Sunny 89 31.7 58 14.4 35 35 W 9 15 29.87 1012 10 16.0934 N/A
3:53 pm 15:53 Sunny 90 32.2 56 13.3 32 32 NW 12 19 29.86 1011 10 16.0934 N/A
4:43 pm 16:43 Hazy 90 32.2 56 13.3 32 32 WNW 3 6 29.65 1004 1.75 2.816345 N/A
4:53 pm 16:53 Hazy 90 32.2 57 13.9 33 33 WNW 6 9 29.84 1011 1.5 2.41401 N/A
5:02 pm 17:02 Hazy 90 32 57 14 33 33 WNW 5 7 29.65 1004 2 3.21868 N/A
5:22 pm 17:22 Hazy 90 32 57 14 33 33 WNW 8 13 29.62 1003 4 6.43736 N/A
5:53 pm 17:53 Sunny 90 32.2 60 15.6 37 37 NW 6 9 29.84 1010 10 16.0934 N/A
6:53 pm 18:53 Sunny 88 31.1 62 16.7 42 42 N 3 6 29.84 1010 10 16.0934 N/A
7:53 pm 19:53 Sunny 81 27.2 67 19.4 62 62 N 6 9 29.85 1011 10 16.0934 N/A
8:53 pm 20:53 Clear 73 22.8 64 17.8 74 74 NNE 9 15 29.88 1012 10 16.0934 N/A
9:53 pm 21:53 Clear 69 20.6 63 17.2 81 81 N N/A 29.9 1012 10 16.0934 N/A
10:53 pm 22:53 Clear 69 20.6 63 17.2 81 81 N N/A 29.9 1012 10 16.0934 N/A
11:53 pm 23:53 Clear 65 18.3 63 17.2 93 93 NE 6 9 29.91 1013 10 16.0934 N/A

Powered by AerisWeather